FENGYUN 1C DEB, 30281

Orbit data source: Space-Track

FENGYUN 1C DEB, 30281 is space debris in SSO originally from a launch on Mon, 10 May 1999 UTC launched from the Taiyaun Space Center, China (TSC). Fengyun 1C debris stems from the Chinese weather satellite Fengyun-1C, which was intentionally destroyed by a Chinese anti-satellite missile in 2007. This event dramatically increased the amount of space debris, with thousands of trackable fragments posing hazards to satellites and human spaceflight. The Fengyun 1C debris cloud has become a focal point in discussions about space sustainability and the need for international regulations to prevent the creation of new debris.

Loading next visibility...
Identifier
30281, 1999-025YS
Orbit
SSO
Country
Flag of CNCN / PRC
Related business
Manufacturer
Unknown
Mission
Spacecraft
Bus & Motor
Unknown
Mass
Unknown
Launch date (UTC)
1999-05-10 (27 years ago)
Launch vehicle
Unknown
Launch site
Taiyaun Space Center, China (TSC)
Object type
Payload
Rocket body
Debris
Shape & HBR
Unknown shape, 0.1 m
Radar Cross Section
Medium (>0.1 m² and <1 m²)

Expand to show TLE details & history
Last TLE update: 21 hours ago

TLE from 21 hours ago
0 FENGYUN 1C DEB
1 30281U 99025YS  26062.56315039  .00000498  00000-0  30257-3 0  9998
2 30281  98.7653  55.3141 0029082  11.2603 101.9150 14.10551180983606
Epoch: 2026-03-03T13:30Z
TLE epoch observation values (Epoch: 2026-03-03T13:30:56.193Z)
Latitude
65.09285°
Longitude
-109.47263°
Altitude
873.085 km
Speed
7.42 km/s
True Right ascension
16h 58m 24s
True Declination
64° 57' 48"
Sunlit
Object was in daylight at epoch
Visualization orbit readout
Latitude
Unknown
Longitude
Unknown
Altitude
Unknown
Speed
Unknown
Apparent Right ascension
Unknown
Apparent Declination
Unknown
Sunlit
N/A
Visualization observer readout
Local Sidereal Time
14:31:35
Azimuth
Unknown
Elevation
Unknown
Doppler factor
Unknown
Orbital elements
Apogee altitude
875.694 km
Perigee altitude
833.626 km
Semi-major axis
7,232.797 km
Eccentricity
0.00291
Inclination
98.7653°
RAAN
55.3141°
Arg. of periapsis
11.2603°
True anomaly
102.24083°
Mean anomaly
101.915°
Eccentric anomaly
102.07794°
Mean motion
3.52845 °/min
Orbital period
102.03 mins
BSTAR
0.00030257
Loading maneuver chart data...
Computing Atmospheric mass density...

Documentation

Showing up to 5 results
|